KINEIS-4D

Last updated on Sun Dec 14 2025 00:02:44 GMT+0000 (Coordinated Universal Time)

1 63302U 25056C 25346.56919676 .00004250 00000+0 67954-3 0 9995 2 63302 98.0150 109.4450 0005635 153.9871 206.1621 14.72319447 39670
UTC large
Height (km)
Speed (km/s)
/
Latitude / Longitude
Inclination (degrees)
Orbital Period (minutes)
Azimuth
Elevation
Range (km)
Doppler Factor

Next 0 passes for location: London (51.5072 / 0.1276)

Sorry there are no passes over London.